[[{"header":{"parameterUnit":"m.s-1","parameterCategory":1,"la1":30.2991,"la2":30.254,"lo1":-89.0895,"lo2":-89.0444,"dy":0.0017,"dx":0.0017,"nx":28,"ny":28,"refTime":"2025-06-04T21:00:00:Z","depth":0,"parameterNumber":2,"parameterNumberName":"U-component_of_WINDS"},"data":[0,0,0,0,0,0,0,0,0,0,0,0,0,0,0,0,0,0,0,0,0,0,0,0,0,0,0,0,0,0,0,0,0,0,0,0,0,0,0,0,0,0,0,0,0,0,0,0,0,0,0,0,0,0,0,0,0,0,2.639,2.639,0,2.6375,2.6375,2.6375,2.6302,2.63,2.6299,2.6297,2.6282,2.6283,2.6285,0,0,0,0,0,0,0,0,0,0,0,0,0,2.6353,2.6354,2.639,2.639,2.639,2.6375,2.6375,2.6375,2.6302,2.63,2.6298,2.6296,2.6282,2.6283,2.6285,0,0,0,0,0,0,0,0,0,0,0,0,0,2.6357,2.6354,2.639,2.6352,2.6348,2.6376,2.6375,2.6375,2.6303,2.63,2.6298,2.6295,2.6281,2.6283,2.6285,2.6348,0,0,2.629,2.6291,0,0,0,0,0,0,0,0,2.6357,2.6358,2.6358,2.6354,2.635,2.6338,2.6357,2.6366,2.6304,2.632,2.6297,2.6294,2.6303,2.6303,2.6306,2.6347,2.6347,2.6291,2.6292,2.6292,2.6293,0,0,0,0,0,0,0,2.6357,2.6359,2.6384,2.6358,2.6353,2.6335,2.6332,2.6358,2.6326,2.6318,2.6313,2.6312,2.63,2.6304,2.6305,2.6346,2.629,2.6292,2.6293,2.6294,2.6435,2.6437,0,0,0,0,0,0,2.6362,2.6359,2.6385,2.6384,2.6347,2.6337,2.6335,2.6345,2.6326,2.632,2.6315,2.6309,2.6302,2.6303,2.6304,2.6373,2.6292,2.6294,2.6295,2.6432,2.6435,2.6438,0,0,0,0,0,0,2.6361,2.6365,2.6385,2.637,2.6371,2.6341,2.6352,2.6346,2.6349,2.6323,2.6317,2.6324,2.63,2.6301,2.6337,2.6372,2.6295,2.6297,2.6429,2.6433,2.6437,2.6514,0,0,0,0,0,0,2.6361,2.6365,2.639,2.6371,2.6372,2.6419,2.6355,2.6347,2.6353,2.6345,2.633,2.6325,2.6298,2.6334,2.6338,2.6373,2.6298,2.6426,2.6431,2.6435,2.6508,2.652,2.653,0,0,0,0,0,2.636,2.6413,2.6391,2.6395,2.6402,2.6421,2.6422,2.639,2.6356,2.6379,2.6362,2.6326,2.6368,2.6338,2.6343,2.6378,2.6423,2.6429,2.6435,2.6503,2.6518,2.653,0,0,0,0,0,0,2.6437,2.641,2.6385,2.6434,2.6431,2.6409,2.6437,2.6407,2.6413,2.6405,2.6365,2.6362,2.6403,2.6394,2.6362,2.6436,2.6389,2.6396,2.644,2.6453,2.6464,2.6464,2.63,0,0,0,0,0,2.646,2.6478,2.6453,2.6499,2.6498,2.6468,2.6476,2.6451,2.6445,2.6443,2.6429,2.6424,2.6436,2.6445,2.6455,2.6508,2.6501,2.6534,2.6545,2.6554,2.656,2.6583,2.6596,2.6458,2.6458,2.6457,0,0,2.6507,2.6494,2.6509,2.6514,2.6508,2.6526,2.6468,2.6491,2.6503,2.6447,2.6478,2.6467,2.646,2.6503,2.6521,2.6497,2.6597,2.6562,2.6569,2.657,2.659,2.6604,2.6615,2.6462,2.6461,2.646,0,0,2.6602,2.6596,2.6631,2.6625,2.6617,2.6596,2.6605,2.6587,2.6577,2.6608,2.6565,2.658,2.6602,2.6597,2.6598,2.6688,2.6654,2.6692,2.6749,2.6773,2.6784,2.6793,2.6821,2.6833,2.6699,2.6699,2.6699,0,2.6661,2.6687,2.6653,2.6677,2.6679,2.6629,2.6663,2.666,2.6655,2.6657,2.6631,2.6655,2.6647,2.6686,2.6708,2.6711,2.6717,2.6693,2.6785,2.6794,2.6802,2.6829,2.684,2.6703,2.6703,2.6702,2.6702,0,2.6759,2.6778,2.6807,2.6802,2.6808,2.6838,2.6806,2.6816,2.6791,2.6773,2.6803,2.6791,2.6796,2.6804,2.6781,2.6839,2.6824,2.6792,2.6744,2.682,2.6844,2.6855,2.671,2.6708,2.6707,2.6706,0,0,2.6901,2.6875,2.6886,2.6882,2.6868,2.6881,2.6907,2.6911,2.6919,2.6918,2.6936,2.6955,2.6924,2.6925,2.69,2.6922,2.6989,2.6886,2.6885,2.6902,2.7049,2.707,2.7083,2.6967,2.6969,2.6971,2.7048,0,2.6988,2.7031,2.6999,2.7047,2.7062,2.7013,2.7036,2.7029,2.7013,2.7022,2.7004,2.7017,2.6977,2.6977,2.6996,2.6977,2.7017,2.6971,2.6982,2.6983,2.6982,2.7096,2.712,2.7193,2.7058,2.7059,2.706,0,2.7096,2.7096,2.7145,2.7124,2.713,2.715,2.7149,2.716,2.7151,2.7137,2.7137,2.7106,2.7128,2.7083,2.7112,2.7081,2.7084,2.7076,2.7078,2.7075,2.7024,2.7093,2.7216,2.7226,2.7076,2.7074,2.7073,0,2.7189,2.7203,2.7233,2.7231,2.7209,2.7224,2.7216,2.7204,2.7207,2.7207,2.7208,2.7211,2.7211,2.7214,2.7184,2.7154,2.7215,2.7168,2.7202,2.7203,2.7215,2.7214,2.7337,2.7223,2.7223,2.7223,2.7223,0,2.7287,2.7318,2.7274,2.7292,2.7324,2.7288,2.732,2.7307,2.7296,2.731,2.727,2.7283,2.7244,2.7253,2.723,2.7255,2.7257,2.7245,2.7238,2.7246,2.7247,2.7245,2.7238,2.7226,2.7225,2.7225,2.7224,0,2.7396,2.7369,2.7397,2.7373,2.7368,2.7392,2.7371,2.7386,2.7367,2.7384,2.7386,2.7356,2.7364,2.7335,2.7339,2.7323,2.736,2.7346,2.7362,2.7357,2.7391,2.7387,2.7514,2.7527,2.7409,2.741,2.7411,0,2.7459,2.7481,2.7459,2.7465,2.7458,2.7468,2.747,2.7435,2.7439,2.7429,2.7444,2.7449,2.7451,2.7466,2.7444,2.7446,2.743,2.7474,2.743,2.7436,2.7426,2.7423,2.7423,2.7482,2.7484,2.7485,2.7486,0,2.7572,2.7556,2.7561,2.7561,2.7564,2.7563,2.7558,2.7565,2.7527,2.7533,2.7541,2.7542,2.7545,2.7549,2.7546,2.7536,2.7504,2.7501,2.7508,2.7515,2.7522,2.7515,2.7384,2.7497,2.7496,2.7495,2.7495,2.7494,2.7657,2.7673,2.7658,2.7664,2.7657,2.7653,2.7664,2.7646,2.7651,2.765,2.7629,2.764,2.7628,2.762,2.7614,2.7621,2.76,2.7611,2.7613,2.7616,2.762,2.7524,2.7621,2.762,2.762,2.762,2.7619,0,2.7764,2.7752,2.7758,2.7751,2.7756,2.7726,2.7718,2.7723,2.7733,2.7724,2.7726,2.7733,2.7736,2.7714,2.7714,2.7724,2.7709,2.7725,2.7722,2.7719,2.7641,2.7633,2.7737,2.7737,2.7737,2.7737,2.7737,2.7737,2.782,2.7843,2.7826,2.7845,2.7833,2.7842,2.784,2.7835,2.7828,2.7837,2.7839,2.7825,2.781,2.7808,2.7809,2.7802,2.7803,2.7823,2.7811,2.7737,2.7726,2.7715,2.7706,2.7824,2.7824,2.7888,2.7889,2.7889]},{"header":{"parameterUnit":"m.s-1","parameterCategory":1,"la1":30.2991,"la2":30.254,"lo1":-89.0895,"lo2":-89.0444,"dy":0.0017,"dx":0.0017,"nx":28,"ny":28,"refTime":"2025-06-04T21:00:00:Z","depth":0,"parameterNumber":3,"parameterNumberName":"V-component_of_WINDS"},"data":[0,0,0,0,0,0,0,0,0,0,0,0,0,0,0,0,0,0,0,0,0,0,0,0,0,0,0,0,0,0,0,0,0,0,0,0,0,0,0,0,0,0,0,0,0,0,0,0,0,0,0,0,0,0,0,0,0,0,2.779,2.7791,0,2.7885,2.7886,2.7887,2.7874,2.7872,2.7871,2.7869,2.7964,2.7968,2.7972,0,0,0,0,0,0,0,0,0,0,0,0,0,2.7592,2.7595,2.779,2.7791,2.7792,2.7885,2.7886,2.7888,2.7874,2.7872,2.787,2.7869,2.7962,2.7967,2.7972,0,0,0,0,0,0,0,0,0,0,0,0,0,2.7681,2.7596,2.779,2.7797,2.7798,2.7885,2.7886,2.7888,2.7875,2.7872,2.787,2.7868,2.7961,2.7967,2.7973,2.8057,0,0,2.7991,2.7993,0,0,0,0,0,0,0,0,2.7676,2.7689,2.7795,2.7796,2.7798,2.7865,2.7851,2.7944,2.7875,2.7846,2.7869,2.7867,2.7933,2.7941,2.7964,2.8061,2.8065,2.7991,2.7995,2.7998,2.7999,0,0,0,0,0,0,0,2.767,2.7684,2.7827,2.7796,2.7798,2.7794,2.7804,2.7869,2.7901,2.7848,2.7847,2.7859,2.7933,2.7958,2.7966,2.8067,2.7991,2.7996,2.8,2.8002,2.8235,2.8238,0,0,0,0,0,0,2.7662,2.7679,2.7824,2.783,2.773,2.7799,2.7811,2.7846,2.79,2.7906,2.7861,2.7858,2.7949,2.7959,2.7969,2.807,2.7997,2.8003,2.8006,2.8233,2.8236,2.8238,0,0,0,0,0,0,2.7658,2.7676,2.7821,2.7755,2.7773,2.7805,2.7845,2.7849,2.7874,2.791,2.7915,2.7881,2.7948,2.7961,2.8035,2.8073,2.8006,2.8011,2.8229,2.8233,2.8237,2.8273,0,0,0,0,0,0,2.7653,2.7674,2.7708,2.7756,2.7776,2.7886,2.7848,2.7853,2.7885,2.7882,2.793,2.7936,2.7947,2.8026,2.8041,2.808,2.8016,2.8226,2.8231,2.8236,2.8269,2.8278,2.8286,0,0,0,0,0,2.7646,2.7714,2.771,2.7727,2.7819,2.7889,2.79,2.7913,2.7888,2.7921,2.7944,2.7934,2.8066,2.8034,2.805,2.8092,2.8224,2.823,2.8235,2.8265,2.8276,2.8285,0,0,0,0,0,0,2.7669,2.772,2.7716,2.7802,2.7841,2.7886,2.7929,2.7924,2.797,2.7965,2.7977,2.7988,2.8063,2.8085,2.8047,2.8175,2.8141,2.8151,2.8158,2.8169,2.8177,2.817,2.8021,0,0,0,0,0,2.7685,2.7738,2.7779,2.7851,2.7871,2.7896,2.7927,2.7933,2.7973,2.7989,2.8018,2.8056,2.8106,2.8139,2.8187,2.8271,2.828,2.8308,2.8316,2.8323,2.8331,2.8375,2.8387,2.8258,2.8258,2.8257,0,0,2.7717,2.7751,2.7784,2.7857,2.7888,2.7941,2.791,2.7968,2.8007,2.7998,2.8069,2.8091,2.8135,2.8214,2.825,2.8234,2.8369,2.8331,2.8336,2.834,2.8383,2.8395,2.8406,2.8262,2.8261,2.826,0,0,2.7803,2.7835,2.7898,2.7929,2.7976,2.7992,2.8007,2.8052,2.8066,2.8139,2.8132,2.8177,2.8264,2.8295,2.8321,2.8416,2.8408,2.8431,2.8475,2.8518,2.8529,2.8538,2.857,2.8582,2.8439,2.8439,2.8439,0,2.7837,2.7918,2.793,2.7989,2.802,2.8014,2.8076,2.8105,2.8165,2.8186,2.8168,2.8274,2.8303,2.8389,2.8412,2.8434,2.845,2.8426,2.8526,2.8536,2.8544,2.8575,2.8587,2.8441,2.8441,2.8441,2.8441,0,2.7956,2.8012,2.8057,2.8116,2.8152,2.8212,2.8231,2.8266,2.8268,2.8285,2.8357,2.8391,2.8445,2.8466,2.8469,2.8551,2.854,2.8524,2.849,2.8559,2.8588,2.86,2.8445,2.8444,2.8443,2.8443,0,0,2.8061,2.8124,2.814,2.8166,2.8216,2.8259,2.8318,2.8371,2.84,2.8441,2.8489,2.8561,2.8546,2.8577,2.8582,2.862,2.8691,2.8599,2.86,2.8614,2.8781,2.8793,2.8807,2.8685,2.8688,2.869,2.8777,0,2.8151,2.8256,2.8268,2.8361,2.8411,2.8405,2.8456,2.8491,2.8508,2.8552,2.8571,2.8621,2.8598,2.8616,2.8654,2.8674,2.8724,2.8668,2.8729,2.8731,2.8718,2.8822,2.8835,2.8916,2.8789,2.8791,2.8792,0,2.8271,2.8315,2.8413,2.8455,2.8476,2.8522,2.8571,2.8614,2.8652,2.8662,2.8695,2.8695,2.8753,2.8717,2.8797,2.8758,2.8783,2.8797,2.88,2.8806,2.8766,2.883,2.8943,2.8954,2.8811,2.8809,2.8808,0,2.8335,2.842,2.8489,2.8511,2.8562,2.8593,2.8616,2.8652,2.8683,2.8725,2.8744,2.8792,2.8818,2.8855,2.8867,2.884,2.8945,2.891,2.8953,2.8952,2.8975,2.8974,2.9093,2.8992,2.8992,2.8992,2.8992,0,2.8434,2.8494,2.8519,2.8561,2.8627,2.8639,2.8704,2.8724,2.8756,2.8801,2.8798,2.884,2.8854,2.8897,2.8907,2.897,2.8982,2.899,2.8992,2.899,2.8989,2.9007,2.9001,2.8995,2.8995,2.8994,2.8993,0,2.8519,2.8538,2.8612,2.8654,2.8665,2.8712,2.8746,2.8786,2.8802,2.8859,2.8873,2.8897,2.8948,2.8964,2.9025,2.9031,2.9105,2.9102,2.9092,2.9092,2.9133,2.9129,2.9267,2.9286,2.9174,2.9175,2.9176,0,2.8581,2.8626,2.8672,2.8703,2.8726,2.8775,2.8806,2.8818,2.885,2.8897,2.8931,2.8981,2.9022,2.9103,2.9126,2.9172,2.9169,2.9215,2.9176,2.9172,2.9169,2.9166,2.9169,2.9222,2.9223,2.9224,2.9225,0,2.8688,2.8694,2.874,2.8788,2.8826,2.8864,2.8901,2.8926,2.8942,2.8978,2.9031,2.9063,2.9125,2.9174,2.9221,2.9242,2.9236,2.9237,2.9249,2.9247,2.9239,2.9243,2.9111,2.9233,2.9233,2.9232,2.9231,2.9231,2.8762,2.8802,2.884,2.889,2.8919,2.8953,2.8992,2.9013,2.9057,2.9109,2.9113,2.9169,2.9204,2.9266,2.9289,2.9332,2.9319,2.9336,2.9341,2.9345,2.9348,2.9233,2.934,2.934,2.934,2.934,2.934,0,2.8868,2.8892,2.8938,2.899,2.9028,2.902,2.906,2.9092,2.9142,2.9176,2.9216,2.9275,2.9323,2.9348,2.9395,2.9424,2.9422,2.9436,2.9433,2.9438,2.9358,2.9342,2.9436,2.9436,2.9436,2.9436,2.9436,2.9436,2.8928,2.8994,2.9005,2.9084,2.9107,2.9163,2.9186,2.9217,2.9244,2.931,2.935,2.9366,2.9396,2.9445,2.9487,2.9493,2.951,2.9525,2.9529,2.9454,2.9444,2.9434,2.942,2.9528,2.9529,2.9605,2.9606,2.9607]}]]